International Skating Union - Official Site

ISU World Cup Speed Skating Calgary
December 1-3, 2017

Draw | Lap Times | Index | World Cup

Referee: Bert  TIMMERMAN  (NED)
Starter: Yong-Seok  OH  (KOR)
StartTime: EndTime: Air Temp: Ice Temp: Humidity:
14:10 14:46 15 ℃ -8.5 ℃ 29%
Result Team Pursuit Men
Rankings as of Dec 2 2017 3:14PM
Rank: No.: Team: Nation: Time: Behind: Points:
Total 11
1 15 Netherlands (105) Sven Kramer (101) Jan Blokhuijsen (117) Koen Verweij (102) Marcel Bosker NED NED 3:36.110.5 - 17.46 - (17.4)
1.0 - 30.39 - (12.9)
1.5 - 43.33 - (12.9)
2.0 - 56.38 - (13.0)
2.5 - 1:09.59 - (13.2)
3.0 - 1:22.94 - (13.3)
3.5 - 1:35.85 - (12.9)
4.0 - 1:48.82 - (12.9)
4.5 - 2:01.78 - (12.9)
5.0 - 2:14.88 - (13.0)
5.5 - 2:28.12 - (13.2)
6.0 - 2:41.81 - (13.6)
6.5 - 2:55.44 - (13.6)
7.0 - 3:09.25 - (13.8)
7.5 - 3:22.67 - (13.4)
8.0 - 3:36.11 - (13.4)
100
2 12 Japan (74) Shota Nakamura (79) Shane Williamson (70) Seitaro Ichinohe JPN JPN 3:38.650.5 - 17.67 - (17.6)
1.0 - 30.93 - (13.2)
1.5 - 43.99 - (13.0)
2.0 - 57.18 - (13.1)
2.5 - 1:10.36 - (13.1)
3.0 - 1:23.62 - (13.2)
3.5 - 1:36.93 - (13.3)
4.0 - 1:50.38 - (13.4)
4.5 - 2:03.76 - (13.3)
5.0 - 2:17.21 - (13.4)
5.5 - 2:30.86 - (13.6)
6.0 - 2:44.30 - (13.4)
6.5 - 2:57.87 - (13.5)
7.0 - 3:11.50 - (13.6)
7.5 - 3:24.93 - (13.4)
8.0 - 3:38.65 - (13.7)
2.54 80
3 17 Norway (124) Sverre Lunde Pedersen (118) Håvard Bøkko (123) Simen Spieler Nilsen (119) Sindre Henriksen NOR NOR 3:38.940.5 - 17.45 - (17.4)
1.0 - 30.71 - (13.2)
1.5 - 43.86 - (13.1)
2.0 - 57.15 - (13.2)
2.5 - 1:10.48 - (13.3)
3.0 - 1:23.94 - (13.4)
3.5 - 1:37.59 - (13.6)
4.0 - 1:51.14 - (13.5)
4.5 - 2:04.69 - (13.5)
5.0 - 2:18.33 - (13.6)
5.5 - 2:31.83 - (13.5)
6.0 - 2:45.19 - (13.3)
6.5 - 2:58.57 - (13.3)
7.0 - 3:11.95 - (13.3)
7.5 - 3:25.37 - (13.4)
8.0 - 3:38.94 - (13.5)
2.83 70
4 11 Italy (64) Andrea Giovannini (67) Nicola Tumolero (62) Riccardo Bugari (65) Michele Malfatti ITA ITA 3:40.440.5 - 17.65 - (17.6)
1.0 - 30.97 - (13.3)
1.5 - 44.08 - (13.1)
2.0 - 57.26 - (13.1)
2.5 - 1:10.81 - (13.5)
3.0 - 1:24.35 - (13.5)
3.5 - 1:37.99 - (13.6)
4.0 - 1:51.45 - (13.4)
4.5 - 2:05.08 - (13.6)
5.0 - 2:18.71 - (13.6)
5.5 - 2:31.98 - (13.2)
6.0 - 2:45.50 - (13.5)
6.5 - 2:59.07 - (13.5)
7.0 - 3:12.81 - (13.7)
7.5 - 3:26.52 - (13.7)
8.0 - 3:40.44 - (13.9)
4.33 60
5 16 New Zealand (128) Reyon Kay (126) Shane Dobbin (129) Peter Michael (130) Josh Whyte NZL NZL 3:40.710.5 - 18.18 - (18.1)
1.0 - 31.60 - (13.4)
1.5 - 44.77 - (13.1)
2.0 - 58.03 - (13.2)
2.5 - 1:11.41 - (13.3)
3.0 - 1:24.95 - (13.5)
3.5 - 1:38.63 - (13.6)
4.0 - 1:52.10 - (13.4)
4.5 - 2:05.63 - (13.5)
5.0 - 2:19.15 - (13.5)
5.5 - 2:32.61 - (13.4)
6.0 - 2:46.10 - (13.4)
6.5 - 2:59.75 - (13.6)
7.0 - 3:13.43 - (13.6)
7.5 - 3:27.02 - (13.5)
8.0 - 3:40.71 - (13.6)
4.60 50
6 18 Poland (135) Konrad Niedzwiedzki (131) Zbigniew Bródka (137) Jan Szymanski (139) Adrian Wielgat POL POL 3:41.880.5 - 17.99 - (17.9)
1.0 - 31.34 - (13.3)
1.5 - 44.70 - (13.3)
2.0 - 57.96 - (13.2)
2.5 - 1:11.26 - (13.3)
3.0 - 1:24.81 - (13.5)
3.5 - 1:38.15 - (13.3)
4.0 - 1:51.47 - (13.3)
4.5 - 2:05.11 - (13.6)
5.0 - 2:18.43 - (13.3)
5.5 - 2:31.78 - (13.3)
6.0 - 2:45.23 - (13.4)
6.5 - 2:59.10 - (13.8)
7.0 - 3:13.27 - (14.1)
7.5 - 3:27.63 - (14.3)
8.0 - 3:41.88 - (14.2)
5.77 45
7 14 Korea (94) Min Seok Kim (90) Jaewon Chung (96) Seung-Hoon Lee (92) Hyong-Jun Joo KOR KOR 3:42.010.5 - 17.72 - (17.7)
1.0 - 30.64 - (12.9)
1.5 - 43.69 - (13.0)
2.0 - 56.80 - (13.1)
2.5 - 1:10.01 - (13.2)
3.0 - 1:23.47 - (13.4)
3.5 - 1:36.67 - (13.2)
4.0 - 1:49.96 - (13.2)
4.5 - 2:03.59 - (13.6)
5.0 - 2:17.17 - (13.5)
5.5 - 2:30.99 - (13.8)
6.0 - 2:45.23 - (14.2)
6.5 - 2:59.41 - (14.1)
7.0 - 3:13.83 - (14.4)
7.5 - 3:27.83 - (14.0)
8.0 - 3:42.01 - (14.1)
5.90 40
8 5 China (26) Alemasi Kahanbai (32) Aerchenghazi Xiakaini (30) Dasituer Tuersonghan (29) Hanyang Shen CHN CHN 3:47.210.5 - 18.50 - (18.5)
1.0 - 31.73 - (13.2)
1.5 - 45.09 - (13.3)
2.0 - 58.39 - (13.3)
2.5 - 1:11.94 - (13.5)
3.0 - 1:25.70 - (13.7)
3.5 - 1:39.69 - (13.9)
4.0 - 1:53.75 - (14.0)
4.5 - 2:07.29 - (13.5)
5.0 - 2:21.00 - (13.7)
5.5 - 2:34.97 - (13.9)
6.0 - 2:49.36 - (14.3)
6.5 - 3:03.67 - (14.3)
7.0 - 3:18.00 - (14.3)
7.5 - 3:32.49 - (14.4)
8.0 - 3:47.21 - (14.7)
11.10 35
9 20 Russia (148) Danila Semerikov (147) Alexander Rumyantsev (149) Danil Sinitsyn (141) Sergey Gryaztsov RUS RUS DNF0.5 - 18.24 - (18.2)
1.0 - 31.58 - (13.3)
1.5 - 44.66 - (13.0)
2.0 - 57.85 - (13.1)
2.5 - 1:11.09 - (13.2)
3.0 - 1:24.59 - (13.5)
3.5 - 1:38.14 - (13.5)
4.0 - 1:51.72 - (13.5)
4.5 - 2:05.43 - (13.7)
5.0 - 2:20.29 - (14.8)
5.5 - 3:01.16 - (40.8)
6.0 - 3:23.14 - (21.9)
0
10 4 Canada (23) Denny Morrison (12) Ted-Jan Bloemen (15) Benjamin Donnelly (11) Jordan Belchos CAN CAN DQ0.5 - 17.49 - (17.4)
1.0 - 30.41 - (12.9)
1.5 - 1:00.53 - (30.1)
2.0 - 1:29.56 - (29.0)
2.5 - 1:48.96 - (19.4)
3.0 - 2:05.04 - (16.0)
3.5 - 2:22.09 - (17.0)
4.0 - 2:37.51 - (15.4)
4.5 - 2:52.25 - (14.7)
5.0 - 3:06.34 - (14.0)
5.5 - 3:20.43 - (14.0)
6.0 - 3:34.84 - (14.4)
6.5 - 3:49.44 - (14.5)
7.0 - 4:03.71 - (14.2)
7.5 - 4:18.05 - (14.3)
8.0 - 4:32.54 - (14.4)
0
10 23 USA (161) Brian Hansen (162) Emery Lehman (163) Joey Mantia (160) Jonathan Garcia USA USA DQ0.5 - 17.68 - (17.6)
1.0 - 30.79 - (13.1)
1.5 - 43.96 - (13.1)
2.0 - 57.30 - (13.3)
2.5 - 1:10.86 - (13.5)
3.0 - 1:24.36 - (13.5)
3.5 - 1:37.88 - (13.5)
4.0 - 1:51.37 - (13.4)
4.5 - 2:05.27 - (13.8)
5.0 - 2:18.69 - (13.4)
5.5 - 2:32.04 - (13.3)
6.0 - 2:45.39 - (13.3)
6.5 - 2:58.78 - (13.3)
7.0 - 3:22.98 - (24.1)
7.5 - 4:07.75 - (44.7)
0